Location: Falkner
(32.6954°N, 86.0502°W)
Time: 15:16:34
(UTC+00:00)

NOAA 12 - Pass Details

Date: 29 October 2020
Orbit: 795 x 815 km, 98.5° (Epoch: 03 December)

Event Time Altitude Azimuth Distance (km) Brightness Sun altitude
Rises 23:20:13 0° 166° (SSE) 3,302 7.3 -5.9°
Reaches altitude 10° 23:22:32 10° 166° (SSE) 2,378 6.6 -6.3°
Maximum altitude 23:27:48 89° 255° (WSW) 814 4.2 -7.4°
Drops below altitude 10° 23:33:09 10° 347° (NNW) 2,403 6.6 -8.5°
Sets 23:35:30 0° 348° (NNW) 3,340 7.3 -9.0°
